Location: Unspecified
(0.0000°N, 0.0000°E)
Time: 19:57:41
(UTC+00:00)

Midas 5 - Visible Passes

Search period start: 07 September 2024 00:00
Search period end: 17 September 2024 00:00
Orbit: 2786 x 3408 km, 86.7° (Epoch: 07 September)

Date Brightness Start Highest point End Pass type
(mag) Time Alt. Az. Time Alt. Az. Time Alt. Az.
07 Sep 7.7 03:25:46 10° S 03:43:05 68° E 03:58:46 10° N visible
08 Sep 8.5 02:25:49 10° SSE 02:40:33 34° E 02:54:01 10° NNE visible
08 Sep 7.6 04:56:50 10° SSW 05:12:49 46° W 05:27:44 10° NNW visible
09 Sep 9.2 01:32:04 10° ESE 01:37:58 13° E 01:43:39 10° ENE visible
09 Sep 7.4 03:53:05 10° S 04:10:35 85° W 04:26:29 10° N visible
09 Sep 9.9 17:59:55 10° NW 18:08:49 18° W 18:18:18 10° SW visible
10 Sep 7.9 02:51:30 10° SSE 03:08:08 54° E 03:23:11 10° NNE visible
10 Sep 8.0 05:26:42 10° SSW 05:40:06 29° W 05:52:52 10° NW visible
11 Sep 8.7 01:52:54 10° SE 02:05:33 25° E 02:17:14 10° NE visible
11 Sep 7.4 04:21:14 10° SSW 04:38:00 59° W 04:53:26 10° NNW visible
12 Sep 7.5 03:18:18 10° S 03:35:40 79° E 03:51:23 10° N visible
13 Sep 8.2 02:17:36 10° SSE 02:33:09 42° E 02:47:16 10° NNE visible
13 Sep 7.7 04:50:20 10° SSW 05:05:18 38° W 05:19:23 10° NNW visible
14 Sep 8.9 01:21:07 10° SE 01:30:33 17° E 01:39:25 10° NE visible
14 Sep 7.3 03:45:57 10° S 04:03:08 74° W 04:18:47 10° N visible
15 Sep 7.6 02:43:47 10° SSE 03:00:43 63° E 03:16:00 10° N visible
15 Sep 8.1 05:21:00 10° SW 05:32:34 23° W 05:43:42 10° NW visible
16 Sep 8.4 01:44:11 10° SE 01:58:09 31° E 02:10:54 10° NNE visible
16 Sep 7.5 04:14:28 10° SSW 04:30:30 50° W 04:45:21 10° NNW visible
